User: anonymous   Login
Location: Unspecified
(0.0000°N, 0.0000°E)
Time: 00:24:00
(UTC+00:00)
Language:

NOSS 3-1 (A) - Orbit

View from above orbital plane
View from above orbital plane
View from above satellite
View from above satellite

Ground track
Ground track

The orbit data is extracted from the following two-line orbital elements,

1 26905U 01040A   17067.02540871 0.00000000  00000-0  00000-0 0    08
2 26905  63.4170 291.9222 0361000 357.7847   2.2153 13.40747621    01
Epoch (UTC): 08 March 2017 00:36:35
Eccentricity: 0.0361000
inclination: 63.4170°
perigee height: 836 km
apogee height: 1376 km
right ascension of ascending node: 291.9222°
argument of perigee: 357.7847°
revolutions per day: 13.40747621
mean anomaly at epoch: 2.2153°
orbit number at epoch: 0

The dashed part of the orbit path shows where the satellite is in the earth's shadow,  

DLR